Weather past 2 weeks in Mamoutzou, Mayotte

Now
86 °F

Scattered clouds.


Feels Like: 92 °F
Forecast: 78 / 82 °F
Wind: 12 mph from Southeast

Location: Dzaoudzi / Pamanzi Mayotte

Current Time: May 28, 2015 at 11:17:19 AM

Latest Report: May 28, 2015 at 11:00 AM


Visibility: N/A

Pressure: 30.01 "Hg

Humidity: 62%

Dew point: 72 °F

Location of MamoutzouLocation

Historic Weather in Mamoutzou — Graph

°F

Mamoutzou temperature yesterday

Maximum temperature yesterday: 88 °F (at 10:00 AM)
Minimum temperature yesterday: 73 °F (at 3:00 AM)
Average temperature yesterday: 81 °F

Past Weeks' High & Low Weather Summary

 TemperatureHumidityPressure
High90 °F (May 17, 12:00 PM)94% (May 26, 3:00 AM)30.04 "Hg (May 26, 3:00 AM)
Low73 °F (May 27, 3:00 AM)52% (May 21, 11:00 AM)29.86 "Hg (May 13, 3:30 PM)
Average82 °F69%29.97 "Hg
* Reported May 13 10:00 AM — May 28 10:04 AM, Mamoutzou, Weather by CustomWeather, © 2015

Note: Actual official high and low records may vary slightly from our data, if they occured in-between our weather recording intervals... More about our weather records

Advertising

Mamoutzou weather history for previous 24 hours

 ConditionsComfort  
Time TempWeatherWind HumidityBarometerVisibility
10:04 AM
Thu, May 28
84 °FPartly sunny.12 mph66%30.01 "HgN/A
9:30 AM82 °FScattered clouds.9 mph74%30.01 "HgN/A
9:00 AM84 °FScattered clouds.9 mph62%30.01 "HgN/A
8:30 AM84 °FScattered clouds.8 mph62%30.01 "HgN/A
8:00 AM84 °FScattered clouds.8 mph66%30.01 "HgN/A
7:30 AM82 °FScattered clouds.9 mph70%29.98 "HgN/A
7:00 AM81 °FScattered clouds.10 mph74%29.98 "HgN/A
6:30 AM79 °FScattered clouds.12 mph74%29.98 "HgN/A
6:00 AM79 °FPassing clouds.12 mph74%29.98 "HgN/A
5:30 AM79 °FPassing clouds.10 mph74%29.98 "HgN/A
5:00 AM79 °FPassing clouds.10 mph74%29.95 "HgN/A
4:30 AM77 °FPassing clouds.9 mph83%29.95 "HgN/A
4:00 AM77 °FPassing clouds.3 mph83%29.95 "HgN/A
3:30 AM77 °FWarm.6 mph83%29.95 "HgN/A
3:00 AM77 °FWarm.8 mph89%29.95 "HgN/A
2:30 AM75 °FMild.3 mph89%29.95 "HgN/A
2:00 AM77 °FWarm.5 mph83%29.98 "HgN/A
1:30 AM77 °FWarm.6 mph83%29.98 "HgN/A
1:00 AM79 °FWarm.5 mph79%29.98 "HgN/A
12:30 AM79 °FPassing clouds.3 mph79%29.98 "HgN/A
12:00 AM79 °FPassing clouds.6 mph79%30.01 "HgN/A
11:30 PM
Wed, May 27
77 °FPassing clouds.3 mph83%30.01 "HgN/A
11:00 PM77 °FPassing clouds.5 mph83%30.01 "HgN/A
10:30 PM77 °FPassing clouds.2 mph83%30.01 "HgN/A
10:00 PM77 °FPassing clouds.2 mph83%30.01 "HgN/A
9:30 PM77 °FWarm.No wind83%30.01 "HgN/A
9:00 PM79 °FWarm.No wind79%30.01 "HgN/A
8:30 PM79 °FOvercast.2 mph79%30.01 "HgN/A
8:00 PM81 °FWarm.5 mph74%30.01 "HgN/A
7:30 PM81 °FPassing clouds.6 mph74%30.01 "HgN/A
7:00 PM81 °FWarm.6 mph74%30.01 "HgN/A
6:30 PM81 °FPassing clouds.7 mph74%29.98 "HgN/A
6:00 PM82 °FPassing clouds.9 mph70%29.98 "HgN/A
5:30 PM82 °FScattered clouds.9 mph70%29.98 "HgN/A
5:00 PM82 °FScattered clouds.10 mph70%29.95 "HgN/A
4:30 PM82 °FScattered clouds.10 mph70%29.95 "HgN/A
4:00 PM84 °FPartly sunny.12 mph70%29.95 "HgN/A
3:30 PM86 °FPartly sunny.13 mph66%29.95 "HgN/A
3:00 PM86 °FPartly sunny.13 mph66%29.95 "HgN/A
2:30 PM86 °FPartly sunny.10 mph66%29.95 "HgN/A
2:00 PM86 °FScattered clouds.10 mph66%29.95 "HgN/A
1:30 PM86 °FScattered clouds.10 mph62%29.95 "HgN/A
1:00 PM86 °FPassing clouds.9 mph62%29.98 "HgN/A
12:30 PM86 °FPassing clouds.10 mph62%29.98 "HgN/A
12:00 PM86 °FPassing clouds.10 mph59%30.01 "HgN/A
11:30 AM86 °FPassing clouds.12 mph62%30.01 "HgN/A
11:00 AM86 °FPassing clouds.12 mph59%30.01 "HgN/A
Weather by CustomWeather, © 2015

See weather overviewHow to use our weather pages